[[{"header":{"parameterUnit":"m.s-1","parameterCategory":1,"la1":30.2991,"la2":30.254,"lo1":-89.0895,"lo2":-89.0444,"dy":0.0017,"dx":0.0017,"nx":28,"ny":28,"refTime":"2025-08-07T03:00:00:Z","depth":0,"parameterNumber":2,"parameterNumberName":"U-component_of_WINDS"},"data":[0,0,0,0,0,0,0,0,0,0,0,0,0,0,0,0,0,0,0,0,0,0,0,0,0,0,0,0,0,0,0,0,0,0,0,0,0,0,0,0,0,0,0,0,0,0,0,0,0,0,0,0,0,0,0,0,0,0,-3.7884,-3.7883,0,-3.7808,-3.7807,-3.7806,-3.7732,-3.7731,-3.7731,-3.773,-3.765,-3.7649,-3.7648,0,0,0,0,0,0,0,0,0,0,0,0,0,-3.7967,-3.7965,-3.7884,-3.7883,-3.7882,-3.7808,-3.7807,-3.7806,-3.7733,-3.7731,-3.773,-3.7729,-3.7651,-3.7649,-3.7648,0,0,0,0,0,0,0,0,0,0,0,0,0,-3.7915,-3.7965,-3.7884,-3.7837,-3.7832,-3.7808,-3.7807,-3.7805,-3.7733,-3.7731,-3.773,-3.7729,-3.7651,-3.7649,-3.7648,-3.7664,0,0,-3.7642,-3.7641,0,0,0,0,0,0,0,0,-3.7918,-3.7912,-3.7845,-3.784,-3.7834,-3.7778,-3.7807,-3.7758,-3.7733,-3.777,-3.773,-3.7728,-3.7694,-3.7688,-3.7677,-3.766,-3.7657,-3.7642,-3.7641,-3.764,-3.7639,0,0,0,0,0,0,0,-3.7921,-3.7914,-3.7854,-3.7844,-3.7837,-3.7819,-3.781,-3.7797,-3.7741,-3.7767,-3.7761,-3.7753,-3.7691,-3.7679,-3.7675,-3.7656,-3.7642,-3.764,-3.7639,-3.7638,-3.7651,-3.7652,0,0,0,0,0,0,-3.7932,-3.7918,-3.7856,-3.7851,-3.7873,-3.7819,-3.7809,-3.7798,-3.7741,-3.7731,-3.7755,-3.775,-3.7683,-3.7677,-3.7672,-3.7688,-3.764,-3.7638,-3.7637,-3.7649,-3.7651,-3.7653,0,0,0,0,0,0,-3.7934,-3.7927,-3.7859,-3.7883,-3.7873,-3.7819,-3.7807,-3.7797,-3.7785,-3.7732,-3.7721,-3.7753,-3.7682,-3.7674,-3.7667,-3.7684,-3.7637,-3.7636,-3.7648,-3.765,-3.7652,-3.7721,0,0,0,0,0,0,-3.7937,-3.7929,-3.7934,-3.7884,-3.7872,-3.7856,-3.7808,-3.7796,-3.7782,-3.7776,-3.7727,-3.7718,-3.768,-3.767,-3.7665,-3.7681,-3.7634,-3.7646,-3.7649,-3.7651,-3.7717,-3.7725,-3.7732,0,0,0,0,0,-3.794,-3.7956,-3.7935,-3.7928,-3.7878,-3.7857,-3.785,-3.7806,-3.7784,-3.7789,-3.7755,-3.7719,-3.7684,-3.767,-3.7664,-3.7679,-3.7644,-3.7648,-3.7651,-3.7713,-3.7723,-3.7732,0,0,0,0,0,0,-3.8008,-3.7948,-3.7924,-3.7924,-3.7897,-3.7845,-3.785,-3.7818,-3.7796,-3.7791,-3.7737,-3.7727,-3.7726,-3.7702,-3.7688,-3.7693,-3.7659,-3.7661,-3.7709,-3.7718,-3.7726,-3.7731,-3.7633,0,0,0,0,0,-3.8024,-3.8012,-3.796,-3.7965,-3.7953,-3.7904,-3.7893,-3.7862,-3.7831,-3.7818,-3.7784,-3.7755,-3.7737,-3.7726,-3.7707,-3.7713,-3.7702,-3.7721,-3.7729,-3.7735,-3.7738,-3.774,-3.7748,-3.7663,-3.7663,-3.7663,0,0,-3.8055,-3.8021,-3.8016,-3.7978,-3.7953,-3.7942,-3.7894,-3.7884,-3.7876,-3.7817,-3.7808,-3.7782,-3.7746,-3.7746,-3.7745,-3.7726,-3.7759,-3.774,-3.7745,-3.7744,-3.7745,-3.7753,-3.776,-3.7665,-3.7665,-3.7665,0,0,-3.8106,-3.8079,-3.808,-3.8057,-3.8019,-3.7987,-3.7988,-3.7941,-3.7922,-3.7913,-3.7869,-3.7858,-3.7828,-3.7805,-3.7789,-3.7834,-3.7801,-3.7829,-3.7869,-3.7873,-3.788,-3.7885,-3.7902,-3.7908,-3.7832,-3.7832,-3.7832,0,-3.8148,-3.813,-3.8085,-3.8078,-3.8063,-3.8011,-3.8012,-3.7991,-3.795,-3.7941,-3.7921,-3.7884,-3.7856,-3.785,-3.7862,-3.7851,-3.785,-3.7834,-3.7882,-3.7888,-3.7892,-3.7907,-3.7914,-3.7836,-3.7835,-3.7835,-3.7835,0,-3.8185,-3.8174,-3.818,-3.8142,-3.8128,-3.8125,-3.808,-3.8071,-3.8042,-3.8012,-3.8004,-3.7969,-3.7943,-3.7939,-3.791,-3.793,-3.792,-3.7892,-3.7857,-3.7905,-3.7918,-3.7924,-3.7841,-3.784,-3.7839,-3.7838,0,0,-3.8275,-3.8214,-3.8217,-3.82,-3.8156,-3.8146,-3.8142,-3.8117,-3.8111,-3.8084,-3.808,-3.8057,-3.8032,-3.8014,-3.7982,-3.7986,-3.8024,-3.7957,-3.7955,-3.7971,-3.8045,-3.8066,-3.8073,-3.8003,-3.8004,-3.8004,-3.8048,0,-3.8318,-3.8308,-3.8268,-3.8269,-3.8258,-3.821,-3.8206,-3.818,-3.8152,-3.8139,-3.8109,-3.8094,-3.8061,-3.8051,-3.8052,-3.802,-3.8038,-3.8016,-3.7998,-3.7998,-3.8008,-3.808,-3.8102,-3.8145,-3.8053,-3.8054,-3.8054,0,-3.8366,-3.8345,-3.8346,-3.8304,-3.8298,-3.8296,-3.827,-3.8258,-3.8227,-3.8208,-3.8189,-3.8155,-3.8148,-3.8116,-3.8107,-3.8093,-3.8083,-3.8067,-3.8067,-3.8063,-3.8028,-3.8078,-3.8157,-3.8164,-3.8062,-3.8061,-3.8061,0,-3.8432,-3.8403,-3.84,-3.8387,-3.8338,-3.8338,-3.8318,-3.8286,-3.8274,-3.8251,-3.8243,-3.8221,-3.8208,-3.8192,-3.8152,-3.8133,-3.8148,-3.8112,-3.8131,-3.8133,-3.8136,-3.8136,-3.8214,-3.8131,-3.8131,-3.8131,-3.8131,0,-3.8484,-3.8486,-3.8429,-3.8427,-3.8429,-3.8384,-3.8387,-3.8362,-3.8334,-3.8327,-3.8284,-3.8278,-3.8226,-3.8215,-3.8184,-3.8181,-3.8176,-3.816,-3.8152,-3.8164,-3.8166,-3.8156,-3.8152,-3.8132,-3.8132,-3.8132,-3.8131,0,-3.8556,-3.8518,-3.8512,-3.8467,-3.8456,-3.846,-3.8421,-3.8418,-3.8389,-3.8381,-3.8376,-3.8331,-3.8315,-3.8275,-3.8248,-3.8228,-3.8234,-3.8219,-3.8245,-3.8239,-3.826,-3.8259,-3.8335,-3.8343,-3.8255,-3.8256,-3.8257,0,-3.8592,-3.8593,-3.8549,-3.8541,-3.8523,-3.8511,-3.8499,-3.8456,-3.8445,-3.8412,-3.8413,-3.8394,-3.8376,-3.8354,-3.8319,-3.8299,-3.8283,-3.8311,-3.8279,-3.8292,-3.8283,-3.8284,-3.8284,-3.8317,-3.8319,-3.832,-3.832,0,-3.8659,-3.864,-3.8625,-3.8604,-3.8591,-3.8572,-3.855,-3.8546,-3.8497,-3.8488,-3.8472,-3.8459,-3.8433,-3.8415,-3.839,-3.8369,-3.8337,-3.8331,-3.8334,-3.8346,-3.8361,-3.8353,-3.8263,-3.8329,-3.8328,-3.8327,-3.8327,-3.8327,-3.8713,-3.8712,-3.8682,-3.8667,-3.8646,-3.8628,-3.8623,-3.8595,-3.8581,-3.8557,-3.8532,-3.8519,-3.849,-3.8453,-3.8435,-3.8425,-3.8408,-3.8412,-3.8414,-3.8415,-3.8421,-3.8364,-3.842,-3.842,-3.842,-3.8419,-3.8419,0,-3.8778,-3.8756,-3.8743,-3.8715,-3.8704,-3.8676,-3.8651,-3.8643,-3.8632,-3.8608,-3.8593,-3.8575,-3.8559,-3.8523,-3.8503,-3.8502,-3.8487,-3.8498,-3.8497,-3.8493,-3.8437,-3.8436,-3.8511,-3.8511,-3.8511,-3.8511,-3.8511,-3.8511,-3.881,-3.8807,-3.8786,-3.8773,-3.8752,-3.8739,-3.8728,-3.8711,-3.8691,-3.8674,-3.8661,-3.8638,-3.861,-3.8588,-3.8572,-3.8562,-3.8556,-3.8573,-3.8558,-3.8506,-3.8497,-3.8489,-3.8488,-3.8572,-3.8572,-3.8615,-3.8615,-3.8616]},{"header":{"parameterUnit":"m.s-1","parameterCategory":1,"la1":30.2991,"la2":30.254,"lo1":-89.0895,"lo2":-89.0444,"dy":0.0017,"dx":0.0017,"nx":28,"ny":28,"refTime":"2025-08-07T03:00:00:Z","depth":0,"parameterNumber":3,"parameterNumberName":"V-component_of_WINDS"},"data":[0,0,0,0,0,0,0,0,0,0,0,0,0,0,0,0,0,0,0,0,0,0,0,0,0,0,0,0,0,0,0,0,0,0,0,0,0,0,0,0,0,0,0,0,0,0,0,0,0,0,0,0,0,0,0,0,0,0,0.4136,0.4136,0,0.4194,0.4195,0.4196,0.4261,0.4262,0.4263,0.4264,0.4323,0.4324,0.4324,0,0,0,0,0,0,0,0,0,0,0,0,0,0.408,0.4081,0.4136,0.4137,0.4137,0.4194,0.4195,0.4196,0.4261,0.4262,0.4263,0.4265,0.4323,0.4323,0.4324,0,0,0,0,0,0,0,0,0,0,0,0,0,0.4118,0.4081,0.4136,0.4177,0.4181,0.4194,0.4195,0.4196,0.4261,0.4262,0.4264,0.4265,0.4322,0.4323,0.4324,0.4302,0,0,0.4327,0.4328,0,0,0,0,0,0,0,0,0.4116,0.412,0.417,0.4174,0.4179,0.4222,0.4197,0.4231,0.4261,0.423,0.4264,0.4266,0.4288,0.4292,0.43,0.4304,0.4307,0.4327,0.4328,0.4329,0.4329,0,0,0,0,0,0,0,0.4113,0.4118,0.4159,0.4171,0.4176,0.4192,0.4199,0.4204,0.425,0.4233,0.4238,0.4244,0.4291,0.4299,0.4302,0.4308,0.4327,0.4328,0.4329,0.4329,0.4297,0.4295,0,0,0,0,0,0,0.4104,0.4115,0.4157,0.4161,0.415,0.4192,0.42,0.4207,0.4251,0.4259,0.4243,0.4247,0.4296,0.43,0.4304,0.428,0.4329,0.4329,0.433,0.4298,0.4297,0.4295,0,0,0,0,0,0,0.4103,0.4107,0.4155,0.4139,0.4147,0.4191,0.4199,0.4207,0.4215,0.4258,0.4266,0.4242,0.4298,0.4303,0.4302,0.4283,0.433,0.4331,0.43,0.4298,0.4296,0.4231,0,0,0,0,0,0,0.4101,0.4106,0.4098,0.4139,0.4147,0.4151,0.4197,0.4207,0.4217,0.4223,0.426,0.4267,0.4299,0.43,0.4303,0.4285,0.4332,0.4302,0.4299,0.4296,0.4235,0.4227,0.422,0,0,0,0,0,0.4099,0.4077,0.4097,0.4102,0.4138,0.415,0.4155,0.4192,0.4215,0.4207,0.4235,0.4266,0.4285,0.4299,0.4303,0.4285,0.4303,0.43,0.4297,0.4239,0.4229,0.4221,0,0,0,0,0,0,0.4033,0.4083,0.4106,0.4097,0.4119,0.4161,0.4152,0.4181,0.4196,0.4201,0.4247,0.4255,0.4248,0.4267,0.4282,0.4266,0.4299,0.4296,0.4253,0.4244,0.4237,0.4232,0.4332,0,0,0,0,0,0.4017,0.4023,0.4067,0.4055,0.4065,0.4107,0.4114,0.4141,0.4165,0.4174,0.4202,0.4224,0.4235,0.4241,0.4253,0.4239,0.4248,0.4229,0.4221,0.4215,0.4212,0.4205,0.4197,0.4284,0.4284,0.4284,0,0,0.3985,0.4014,0.4015,0.4043,0.4063,0.4068,0.4114,0.4117,0.4121,0.4175,0.4175,0.4197,0.4224,0.4217,0.4215,0.4232,0.419,0.4211,0.4205,0.4206,0.4201,0.4193,0.4186,0.4282,0.4282,0.4283,0,0,0.3929,0.3951,0.3944,0.3963,0.3993,0.4021,0.4019,0.4058,0.4074,0.4076,0.4116,0.4122,0.414,0.4158,0.4169,0.4121,0.415,0.4124,0.4084,0.4078,0.4071,0.4065,0.4047,0.404,0.4121,0.4121,0.4121,0,0.3885,0.3894,0.3936,0.3937,0.3948,0.3998,0.3991,0.4007,0.4039,0.4046,0.4066,0.409,0.4112,0.4109,0.4097,0.4105,0.4104,0.4119,0.4068,0.4063,0.4058,0.4042,0.4035,0.4117,0.4118,0.4118,0.4118,0,0.3839,0.3845,0.3835,0.3865,0.3876,0.3872,0.3914,0.3919,0.3946,0.3972,0.3973,0.4002,0.4021,0.4023,0.4048,0.4024,0.4033,0.406,0.4094,0.4046,0.4031,0.4025,0.4112,0.4114,0.4115,0.4116,0,0,0.3741,0.3795,0.3791,0.3805,0.3843,0.3848,0.3847,0.3867,0.387,0.3891,0.3891,0.3906,0.3931,0.3944,0.3973,0.3967,0.3927,0.3995,0.3996,0.398,0.3901,0.3879,0.3871,0.3948,0.3947,0.3946,0.3898,0,0.369,0.3692,0.373,0.3721,0.3727,0.3774,0.3774,0.3797,0.3821,0.383,0.3857,0.3867,0.3899,0.3908,0.3904,0.3932,0.3911,0.3937,0.3947,0.3947,0.3937,0.3864,0.3841,0.3795,0.3893,0.3892,0.3891,0,0.3631,0.3649,0.364,0.3678,0.3682,0.3681,0.3702,0.371,0.3737,0.3755,0.377,0.3803,0.3805,0.3838,0.3841,0.3858,0.3865,0.3879,0.3878,0.388,0.3915,0.3862,0.3781,0.3773,0.3883,0.3883,0.3884,0,0.3559,0.3581,0.3579,0.359,0.3635,0.3633,0.3651,0.368,0.3689,0.3708,0.3714,0.3733,0.3742,0.3756,0.3793,0.3814,0.3792,0.3828,0.3806,0.3805,0.3798,0.3798,0.3716,0.3805,0.3805,0.3805,0.3805,0,0.3498,0.349,0.3547,0.3546,0.3539,0.3583,0.3575,0.3599,0.3624,0.3628,0.3671,0.3673,0.3723,0.3731,0.376,0.3758,0.3762,0.3777,0.3784,0.3772,0.377,0.3776,0.378,0.3803,0.3803,0.3804,0.3804,0,0.3415,0.3454,0.3454,0.3497,0.3508,0.35,0.3537,0.3537,0.3565,0.3569,0.3573,0.3617,0.3629,0.3667,0.3689,0.3709,0.3697,0.3713,0.3688,0.3692,0.3668,0.367,0.3586,0.3577,0.3673,0.3672,0.3671,0,0.3373,0.3368,0.3411,0.3417,0.3433,0.3442,0.3452,0.3496,0.3505,0.3536,0.3532,0.3548,0.3562,0.3579,0.3613,0.363,0.3645,0.3615,0.3648,0.3636,0.3643,0.3643,0.3642,0.3607,0.3606,0.3605,0.3604,0,0.3293,0.3313,0.3326,0.3345,0.3356,0.3373,0.3393,0.3395,0.3445,0.3452,0.3465,0.3476,0.3499,0.3514,0.3536,0.3555,0.3587,0.3594,0.3589,0.3576,0.3561,0.3568,0.3667,0.3595,0.3596,0.3596,0.3597,0.3597,0.3229,0.3227,0.3257,0.327,0.329,0.3308,0.331,0.3339,0.335,0.3372,0.3398,0.3407,0.3436,0.3469,0.3486,0.3494,0.3512,0.3506,0.3504,0.3502,0.3495,0.3561,0.3499,0.3499,0.35,0.35,0.35,0,0.3151,0.3173,0.3184,0.3211,0.3221,0.3252,0.3276,0.3282,0.329,0.3314,0.3328,0.3343,0.3358,0.3393,0.3411,0.3411,0.3426,0.3414,0.3414,0.3417,0.3479,0.3481,0.3401,0.3401,0.3401,0.3401,0.3401,0.3401,0.3111,0.311,0.3133,0.3141,0.3164,0.3174,0.3185,0.3201,0.3221,0.3235,0.3248,0.3271,0.33,0.332,0.3335,0.3345,0.335,0.3332,0.3347,0.3404,0.3413,0.3422,0.3423,0.3333,0.3333,0.3284,0.3284,0.3284]}]]